Tracking 23893 objects as of 29-Nov-2021
HD Live streaming from Space Station
objects crossing your sky now

THORAD AGENA D DEB

Track THORAD AGENA D DEB now!
10-day predictions


NORAD ID: 4519
Int'l Code: 1969-082FW
Perigee: 573.9 km
Apogee: 611.3 km
Inclination: 70.0 °
Period: 96.4 minutes
Semi major axis: 6963 km
RCS: 0.0529 m2 (small)
Launch date: September 30, 1969
Source: United States (US)
Launch site: AIR FORCE WESTERN TEST RANGE (AFWTR)

Note: This is SATELLITE DEBRIS
aabbcc
Your satellite tracking list
Your tracking list is empty




NASA's NSSDC Master Catalog

Two Line Element Set (TLE):
1 04519U 69082FW  21332.64736674  .00002681  00000-0  25779-3 0  9998
2 04519  70.0451  49.2496 0026859 334.9980  24.9874 14.93991291735588
Source of the keplerian elements: AFSPC